Pike County-Hatcher Field (PBX)

 

Airport Diagram
No Airport Diagram Available
Current Weather/Forecast (MVFR Conditions)
METAR KPBX 071355Z AUTO 27006KT 10SM BKN015 BKN024 OVC035 08/08 A3000 RMK AO2 T00840083
TAF

Airport Information

All Charts
General
Chart Name View
TAKEOFF MINIMUMS
ALTERNATE MINIMUMS

Approaches
Chart Name Download
ILS OR LOC RWY 27
RNAV (GPS) RWY 09
RNAV (GPS) RWY 27


Airport Statistics
Departures Arrivals Local
All Collected Stats since June 2016: 7 7 0
2021 Stats: 0 0 0
May Stats: 0 0 0

Inbound Traffic (Arrivals) - 0

No inbound traffic.


Outbound Traffic (Departures) - 0

No outbound traffic.


Local Traffic (Pattern) - 0

No local traffic.